Time,TemperatureF,DewpointF,PressureIn,WindDirection,WindDirectionDegrees,WindSpeedMPH,WindSpeedGustMPH,Humidity,HourlyPrecipIn,Conditions,Clouds,dailyrainin,SoftwareType,DateUTC
2013-04-25 00:02:00,48.0,35.0,30.23,West,281,1.0,6.0,61,0.00,,,0.00,,2013-04-25 05:02:00,
2013-04-25 00:12:00,48.0,35.0,30.23,West,281,1.0,6.0,61,0.00,,,0.00,,2013-04-25 05:12:00,
2013-04-25 00:21:00,47.0,35.0,30.24,West,281,2.0,3.0,64,0.00,,,0.00,,2013-04-25 05:21:00,
2013-04-25 00:32:00,47.0,35.0,30.25,West,281,2.0,5.0,64,0.00,,,0.00,,2013-04-25 05:32:00,
2013-04-25 00:42:00,47.0,35.0,30.25,West,281,2.0,5.0,64,0.00,,,0.00,,2013-04-25 05:42:00,
2013-04-25 00:52:00,47.0,35.0,30.25,West,281,1.0,4.0,64,0.00,,,0.00,,2013-04-25 05:52:00,
2013-04-25 01:02:00,46.0,35.0,30.25,West,281,0.0,2.0,66,0.00,,,0.00,,2013-04-25 06:02:00,
2013-04-25 01:11:00,46.0,35.0,30.25,West,281,0.0,2.0,66,0.00,,,0.00,,2013-04-25 06:11:00,
2013-04-25 01:22:00,45.0,35.0,30.26,West,281,2.0,4.0,67,0.00,,,0.00,,2013-04-25 06:22:00,
2013-04-25 01:31:00,45.0,35.0,30.26,West,281,2.0,4.0,67,0.00,,,0.00,,2013-04-25 06:31:00,
2013-04-25 01:41:00,45.0,34.0,30.26,West,281,1.0,2.0,66,0.00,,,0.00,,2013-04-25 06:41:00,
2013-04-25 01:52:00,45.0,34.0,30.26,West,281,1.0,2.0,66,0.00,,,0.00,,2013-04-25 06:52:00,
2013-04-25 02:01:00,44.0,34.0,30.27,West,281,2.0,4.0,67,0.00,,,0.00,,2013-04-25 07:01:00,
2013-04-25 02:11:00,44.0,34.0,30.27,West,281,1.0,4.0,67,0.00,,,0.00,,2013-04-25 07:11:00,
2013-04-25 02:22:00,44.0,34.0,30.27,West,281,1.0,4.0,67,0.00,,,0.00,,2013-04-25 07:22:00,
2013-04-25 02:31:00,44.0,34.0,30.28,West,281,0.0,1.0,68,0.00,,,0.00,,2013-04-25 07:31:00,
2013-04-25 02:42:00,44.0,34.0,30.28,West,281,0.0,1.0,68,0.00,,,0.00,,2013-04-25 07:42:00,
2013-04-25 02:52:00,43.0,34.0,30.27,West,281,0.0,0.0,69,0.00,,,0.00,,2013-04-25 07:52:00,
2013-04-25 03:01:00,42.0,33.0,30.27,West,281,0.0,0.0,71,0.00,,,0.00,,2013-04-25 08:01:00,
2013-04-25 03:11:00,42.0,33.0,30.27,West,281,0.0,0.0,71,0.00,,,0.00,,2013-04-25 08:11:00,
2013-04-25 03:21:00,40.0,32.0,30.28,West,281,0.0,0.0,74,0.00,,,0.00,,2013-04-25 08:21:00,
2013-04-25 03:31:00,40.0,33.0,30.27,West,281,0.0,0.0,75,0.00,,,0.00,,2013-04-25 08:31:00,
2013-04-25 03:41:00,40.0,33.0,30.27,West,281,0.0,0.0,75,0.00,,,0.00,,2013-04-25 08:41:00,
2013-04-25 03:52:00,40.0,33.0,30.27,West,281,0.0,0.0,76,0.00,,,0.00,,2013-04-25 08:52:00,
2013-04-25 04:01:00,39.0,32.0,30.27,West,281,0.0,0.0,76,0.00,,,0.00,,2013-04-25 09:01:00,
2013-04-25 04:11:00,39.0,32.0,30.27,West,281,0.0,0.0,76,0.00,,,0.00,,2013-04-25 09:11:00,
2013-04-25 04:21:00,39.0,33.0,30.27,West,281,0.0,0.0,78,0.00,,,0.00,,2013-04-25 09:21:00,
2013-04-25 04:33:00,38.0,32.0,30.27,West,281,0.0,0.0,79,0.00,,,0.00,,2013-04-25 09:33:00,
2013-04-25 04:42:00,38.0,32.0,30.27,West,281,0.0,0.0,79,0.00,,,0.00,,2013-04-25 09:42:00,
2013-04-25 04:52:00,37.0,33.0,30.27,West,281,0.0,0.0,84,0.00,,,0.00,,2013-04-25 09:52:00,
2013-04-25 05:02:00,37.0,32.0,30.27,West,281,0.0,0.0,83,0.00,,,0.00,,2013-04-25 10:02:00,
2013-04-25 05:12:00,37.0,32.0,30.27,West,281,0.0,0.0,83,0.00,,,0.00,,2013-04-25 10:12:00,
2013-04-25 05:22:00,37.0,32.0,30.27,West,281,0.0,0.0,81,0.00,,,0.00,,2013-04-25 10:22:00,
2013-04-25 05:32:00,37.0,32.0,30.28,West,281,0.0,0.0,83,0.00,,,0.00,,2013-04-25 10:32:00,
2013-04-25 05:42:00,37.0,32.0,30.28,West,281,0.0,0.0,83,0.00,,,0.00,,2013-04-25 10:42:00,
2013-04-25 05:53:00,37.0,32.0,30.27,West,281,0.0,0.0,83,0.00,,,0.00,,2013-04-25 10:53:00,
2013-04-25 06:02:00,37.0,32.0,30.27,West,281,0.0,0.0,81,0.00,,,0.00,,2013-04-25 11:02:00,
2013-04-25 06:12:00,37.0,32.0,30.27,West,281,0.0,0.0,81,0.00,,,0.00,,2013-04-25 11:12:00,
2013-04-25 06:22:00,38.0,32.0,30.28,West,281,0.0,4.0,78,0.00,,,0.00,,2013-04-25 11:22:00,
2013-04-25 06:32:00,37.0,31.0,30.28,West,281,0.0,0.0,79,0.00,,,0.00,,2013-04-25 11:32:00,
2013-04-25 06:42:00,37.0,31.0,30.28,West,281,0.0,0.0,79,0.00,,,0.00,,2013-04-25 11:42:00,
2013-04-25 06:52:00,35.0,30.0,30.29,West,281,0.0,0.0,83,0.00,,,0.00,,2013-04-25 11:52:00,
2013-04-25 07:01:00,36.0,31.0,30.29,West,281,0.0,2.0,83,0.00,,,0.00,,2013-04-25 12:01:00,
2013-04-25 07:12:00,36.0,31.0,30.29,West,281,0.0,2.0,83,0.00,,,0.00,,2013-04-25 12:12:00,
2013-04-25 07:21:00,38.0,32.0,30.30,West,281,0.0,3.0,80,0.00,,,0.00,,2013-04-25 12:21:00,
2013-04-25 07:31:00,38.0,32.0,30.30,West,281,0.0,0.0,79,0.00,,,0.00,,2013-04-25 12:31:00,
2013-04-25 07:41:00,38.0,32.0,30.30,West,281,0.0,0.0,79,0.00,,,0.00,,2013-04-25 12:41:00,
2013-04-25 07:52:00,38.0,32.0,30.31,West,281,1.0,1.0,80,0.00,,,0.00,,2013-04-25 12:52:00,
2013-04-25 08:02:00,39.0,33.0,30.31,West,281,2.0,2.0,79,0.00,,,0.00,,2013-04-25 13:02:00,
2013-04-25 08:11:00,39.0,33.0,30.31,West,281,2.0,2.0,79,0.00,,,0.00,,2013-04-25 13:11:00,
2013-04-25 08:21:00,41.0,34.0,30.31,West,281,1.0,2.0,76,0.00,,,0.00,,2013-04-25 13:21:00,
2013-04-25 08:31:00,42.0,34.0,30.31,West,281,0.0,2.0,74,0.00,,,0.00,,2013-04-25 13:31:00,
2013-04-25 08:42:00,42.0,34.0,30.31,West,281,0.0,2.0,74,0.00,,,0.00,,2013-04-25 13:42:00,
2013-04-25 08:52:00,44.0,33.0,30.32,West,281,4.0,6.0,66,0.00,,,0.00,,2013-04-25 13:52:00,
2013-04-25 09:01:00,45.0,34.0,30.32,SSW,209,3.0,8.0,66,0.00,,,0.00,,2013-04-25 14:01:00,
2013-04-25 09:11:00,45.0,34.0,30.32,SSW,209,3.0,8.0,66,0.00,,,0.00,,2013-04-25 14:11:00,
2013-04-25 09:21:00,46.0,35.0,30.32,SW,236,2.0,7.0,66,0.00,,,0.00,,2013-04-25 14:21:00,
2013-04-25 09:32:00,47.0,35.0,30.33,WSW,240,3.0,8.0,62,0.00,,,0.00,,2013-04-25 14:32:00,
2013-04-25 09:42:00,47.0,35.0,30.33,WSW,240,3.0,8.0,62,0.00,,,0.00,,2013-04-25 14:42:00,
2013-04-25 09:52:00,49.0,32.0,30.32,WSW,240,4.0,8.0,51,0.00,,,0.00,,2013-04-25 14:52:00,
2013-04-25 10:02:00,50.0,32.0,30.32,WNW,282,4.0,7.0,49,0.00,,,0.00,,2013-04-25 15:02:00,
2013-04-25 10:11:00,52.0,31.0,30.32,WSW,250,4.0,7.0,45,0.00,,,0.00,,2013-04-25 15:11:00,
2013-04-25 10:21:00,52.0,31.0,30.32,WSW,250,4.0,7.0,45,0.00,,,0.00,,2013-04-25 15:21:00,
2013-04-25 10:33:00,53.0,31.0,30.32,WSW,241,5.0,8.0,42,0.00,,,0.00,,2013-04-25 15:33:00,
2013-04-25 10:42:00,53.0,31.0,30.32,WSW,241,5.0,8.0,42,0.00,,,0.00,,2013-04-25 15:42:00,
2013-04-25 10:53:00,53.0,29.0,30.32,West,275,3.0,9.0,40,0.00,,,0.00,,2013-04-25 15:53:00,
2013-04-25 11:02:00,54.0,26.0,30.31,West,265,4.0,11.0,34,0.00,,,0.00,,2013-04-25 16:02:00,
2013-04-25 11:13:00,54.0,26.0,30.31,West,265,4.0,11.0,34,0.00,,,0.00,,2013-04-25 16:13:00,
2013-04-25 11:24:00,55.0,24.0,30.32,West,277,5.0,12.0,30,0.00,,,0.00,,2013-04-25 16:24:00,
2013-04-25 11:32:00,55.0,27.0,30.32,West,274,2.0,8.0,34,0.00,,,0.00,,2013-04-25 16:32:00,
2013-04-25 11:42:00,55.0,27.0,30.32,West,274,2.0,8.0,34,0.00,,,0.00,,2013-04-25 16:42:00,
2013-04-25 11:52:00,56.0,29.0,30.31,WNW,301,3.0,8.0,35,0.00,,,0.00,,2013-04-25 16:52:00,
2013-04-25 12:02:00,56.0,27.0,30.31,WSW,251,2.0,8.0,32,0.00,,,0.00,,2013-04-25 17:02:00,
2013-04-25 12:11:00,56.0,27.0,30.31,WSW,251,2.0,8.0,32,0.00,,,0.00,,2013-04-25 17:11:00,
2013-04-25 12:22:00,57.0,28.0,30.31,WNW,290,4.0,10.0,33,0.00,,,0.00,,2013-04-25 17:22:00,
2013-04-25 12:32:00,57.0,27.0,30.31,West,280,1.0,8.0,32,0.00,,,0.00,,2013-04-25 17:32:00,
2013-04-25 12:42:00,57.0,27.0,30.31,West,280,1.0,8.0,32,0.00,,,0.00,,2013-04-25 17:42:00,
2013-04-25 12:53:00,60.0,30.0,30.30,SE,144,2.0,7.0,32,0.00,,,0.00,,2013-04-25 17:53:00,
2013-04-25 13:01:00,61.0,29.0,30.29,SSE,168,4.0,8.0,30,0.00,,,0.00,,2013-04-25 18:01:00,
2013-04-25 13:11:00,61.0,29.0,30.29,SSE,168,4.0,8.0,30,0.00,,,0.00,,2013-04-25 18:11:00,
2013-04-25 13:21:00,62.0,29.0,30.28,SSE,149,4.0,9.0,29,0.00,,,0.00,,2013-04-25 18:21:00,
2013-04-25 13:32:00,62.0,31.0,30.28,SSE,160,3.0,9.0,31,0.00,,,0.00,,2013-04-25 18:32:00,
2013-04-25 13:42:00,62.0,31.0,30.28,SSE,160,3.0,9.0,31,0.00,,,0.00,,2013-04-25 18:42:00,
2013-04-25 13:53:00,61.0,31.0,30.28,WNW,298,3.0,10.0,32,0.00,,,0.00,,2013-04-25 18:53:00,
2013-04-25 14:01:00,62.0,33.0,30.27,SSE,159,4.0,10.0,34,0.00,,,0.00,,2013-04-25 19:01:00,
2013-04-25 14:12:00,62.0,33.0,30.27,SSE,159,4.0,10.0,34,0.00,,,0.00,,2013-04-25 19:12:00,
2013-04-25 14:21:00,64.0,29.0,30.26,SW,222,3.0,9.0,27,0.00,,,0.00,,2013-04-25 19:21:00,
2013-04-25 14:31:00,64.0,30.0,30.26,WSW,258,5.0,10.0,28,0.00,,,0.00,,2013-04-25 19:31:00,
2013-04-25 14:41:00,64.0,30.0,30.26,WSW,258,5.0,10.0,28,0.00,,,0.00,,2013-04-25 19:41:00,
2013-04-25 14:52:00,64.0,34.0,30.25,SE,129,2.0,10.0,32,0.00,,,0.00,,2013-04-25 19:52:00,
2013-04-25 15:01:00,66.0,31.0,30.24,SSW,192,7.0,10.0,27,0.00,,,0.00,,2013-04-25 20:01:00,
2013-04-25 15:11:00,66.0,31.0,30.24,SSW,192,7.0,10.0,27,0.00,,,0.00,,2013-04-25 20:11:00,
2013-04-25 15:22:00,66.0,31.0,30.22,South,174,4.0,7.0,27,0.00,,,0.00,,2013-04-25 20:22:00,
2013-04-25 15:32:00,67.0,31.0,30.22,SE,141,5.0,10.0,26,0.00,,,0.00,,2013-04-25 20:32:00,
2013-04-25 15:42:00,67.0,31.0,30.22,SE,141,5.0,10.0,26,0.00,,,0.00,,2013-04-25 20:42:00,
2013-04-25 15:52:00,67.0,35.0,30.22,South,175,3.0,9.0,30,0.00,,,0.00,,2013-04-25 20:52:00,
2013-04-25 16:01:00,66.0,33.0,30.21,SSE,168,5.0,15.0,29,0.00,,,0.00,,2013-04-25 21:01:00,
2013-04-25 16:11:00,66.0,33.0,30.21,SSE,168,5.0,15.0,29,0.00,,,0.00,,2013-04-25 21:11:00,
2013-04-25 16:21:00,67.0,35.0,30.20,SW,226,6.0,11.0,30,0.00,,,0.00,,2013-04-25 21:21:00,
2013-04-25 16:33:00,67.0,33.0,30.20,SSE,162,6.0,11.0,28,0.00,,,0.00,,2013-04-25 21:33:00,
2013-04-25 16:42:00,67.0,33.0,30.20,SSE,162,6.0,11.0,28,0.00,,,0.00,,2013-04-25 21:42:00,
2013-04-25 16:53:00,67.0,35.0,30.19,SSW,212,6.0,16.0,30,0.00,,,0.00,,2013-04-25 21:53:00,
2013-04-25 17:02:00,67.0,33.0,30.19,SSW,204,5.0,15.0,28,0.00,,,0.00,,2013-04-25 22:02:00,
2013-04-25 17:12:00,67.0,33.0,30.19,SSW,204,5.0,15.0,28,0.00,,,0.00,,2013-04-25 22:12:00,
2013-04-25 17:22:00,68.0,33.0,30.18,SSW,210,4.0,7.0,27,0.00,,,0.00,,2013-04-25 22:22:00,
2013-04-25 17:32:00,68.0,35.0,30.18,SW,225,5.0,11.0,29,0.00,,,0.00,,2013-04-25 22:32:00,
2013-04-25 17:42:00,68.0,35.0,30.18,SW,225,5.0,11.0,29,0.00,,,0.00,,2013-04-25 22:42:00,
2013-04-25 17:53:00,67.0,34.0,30.18,SSW,199,6.0,13.0,29,0.00,,,0.00,,2013-04-25 22:53:00,
2013-04-25 18:02:00,67.0,35.0,30.17,South,190,5.0,13.0,30,0.00,,,0.00,,2013-04-25 23:02:00,
2013-04-25 18:12:00,67.0,35.0,30.17,South,190,5.0,13.0,30,0.00,,,0.00,,2013-04-25 23:12:00,
2013-04-25 18:22:00,67.0,36.0,30.17,SSW,203,3.0,7.0,32,0.00,,,0.00,,2013-04-25 23:22:00,
2013-04-25 18:32:00,67.0,37.0,30.17,South,174,4.0,11.0,33,0.00,,,0.00,,2013-04-25 23:32:00,
2013-04-25 18:41:00,67.0,37.0,30.17,South,174,4.0,11.0,33,0.00,,,0.00,,2013-04-25 23:41:00,
2013-04-25 18:52:00,66.0,35.0,30.16,South,182,5.0,8.0,32,0.00,,,0.00,,2013-04-25 23:52:00,
2013-04-25 19:01:00,66.0,37.0,30.16,South,174,3.0,8.0,34,0.00,,,0.00,,2013-04-26 00:01:00,
2013-04-25 19:11:00,66.0,37.0,30.16,South,174,3.0,8.0,34,0.00,,,0.00,,2013-04-26 00:11:00,
2013-04-25 19:21:00,65.0,37.0,30.14,South,181,3.0,8.0,35,0.00,,,0.00,,2013-04-26 00:21:00,
2013-04-25 19:31:00,64.0,37.0,30.14,South,175,3.0,7.0,36,0.00,,,0.00,,2013-04-26 00:31:00,
2013-04-25 19:41:00,64.0,37.0,30.14,South,175,3.0,7.0,36,0.00,,,0.00,,2013-04-26 00:41:00,
2013-04-25 19:52:00,63.0,36.0,30.14,SSE,162,3.0,6.0,37,0.00,,,0.00,,2013-04-26 00:52:00,
2013-04-25 20:01:00,62.0,37.0,30.14,SSE,155,3.0,6.0,40,0.00,,,0.00,,2013-04-26 01:01:00,
2013-04-25 20:11:00,62.0,37.0,30.14,SSE,155,3.0,6.0,40,0.00,,,0.00,,2013-04-26 01:11:00,
2013-04-25 20:21:00,61.0,37.0,30.14,South,182,3.0,6.0,41,0.00,,,0.00,,2013-04-26 01:21:00,
2013-04-25 20:31:00,59.0,37.0,30.13,SE,140,2.0,4.0,44,0.00,,,0.00,,2013-04-26 01:31:00,
2013-04-25 20:41:00,59.0,37.0,30.13,SE,140,2.0,4.0,44,0.00,,,0.00,,2013-04-26 01:41:00,
2013-04-25 20:52:00,59.0,38.0,30.13,SE,146,2.0,3.0,46,0.00,,,0.00,,2013-04-26 01:52:00,
2013-04-25 21:02:00,58.0,37.0,30.14,SSE,159,2.0,6.0,46,0.00,,,0.00,,2013-04-26 02:02:00,
2013-04-25 21:11:00,58.0,37.0,30.14,SSE,159,2.0,6.0,46,0.00,,,0.00,,2013-04-26 02:11:00,
2013-04-25 21:21:00,58.0,38.0,30.14,SSE,150,2.0,6.0,48,0.00,,,0.00,,2013-04-26 02:21:00,
2013-04-25 21:32:00,57.0,39.0,30.15,SSE,152,2.0,5.0,50,0.00,,,0.00,,2013-04-26 02:32:00,
2013-04-25 21:42:00,57.0,39.0,30.15,SSE,152,2.0,5.0,50,0.00,,,0.00,,2013-04-26 02:42:00,
2013-04-25 21:51:00,57.0,39.0,30.15,South,189,2.0,5.0,51,0.00,,,0.00,,2013-04-26 02:51:00,
2013-04-25 22:01:00,56.0,40.0,30.15,South,185,2.0,4.0,54,0.00,,,0.00,,2013-04-26 03:01:00,
2013-04-25 22:11:00,56.0,40.0,30.15,South,185,2.0,4.0,54,0.00,,,0.00,,2013-04-26 03:11:00,
2013-04-25 22:21:00,56.0,40.0,30.16,South,185,2.0,5.0,54,0.00,,,0.00,,2013-04-26 03:21:00,
2013-04-25 22:33:00,56.0,39.0,30.16,SSE,151,3.0,7.0,53,0.00,,,0.00,,2013-04-26 03:33:00,
2013-04-25 22:43:00,56.0,39.0,30.16,SSE,151,3.0,7.0,53,0.00,,,0.00,,2013-04-26 03:43:00,
2013-04-25 22:53:00,57.0,40.0,30.16,SSE,161,4.0,6.0,52,0.00,,,0.00,,2013-04-26 03:53:00,
2013-04-25 23:02:00,57.0,39.0,30.16,ESE,120,2.0,6.0,51,0.00,,,0.00,,2013-04-26 04:02:00,
2013-04-25 23:12:00,57.0,39.0,30.16,ESE,120,2.0,6.0,51,0.00,,,0.00,,2013-04-26 04:12:00,
2013-04-25 23:22:00,57.0,39.0,30.15,SE,141,2.0,5.0,51,0.00,,,0.00,,2013-04-26 04:22:00,
2013-04-25 23:32:00,57.0,39.0,30.15,SSE,165,3.0,6.0,51,0.00,,,0.00,,2013-04-26 04:32:00,
2013-04-25 23:43:00,57.0,39.0,30.15,SSE,165,3.0,6.0,51,0.00,,,0.00,,2013-04-26 04:43:00,
2013-04-25 23:52:00,57.0,39.0,30.15,SSE,155,2.0,8.0,51,0.00,,,0.00,,2013-04-26 04:52:00,